Regional Weather Roundup
Issued by NWS San Diego, CA

Home | Current Version | Previous Version | Text Only | Print | Product List | Glossary On
Versions: 1 2 3 4 5 6 7 8 9 10 11 12 13 14 15 16 17 18 19 20 21
000
ASUS46 KSGX 060111
RWRSGX

SAN DIEGO HOURLY WEATHER ROUNDUP
NATIONAL WEATHER SERVICE SAN DIEGO CA
500 PM PST MON DEC 05 2016

NOTE: "FAIR" INDICATES FEW OR NO CLOUDS BELOW 12,000 FEET WITH NO
SIGNIFICANT WEATHER AND/OR OBSTRUCTIONS TO VISIBILITY.

CAZ042-043-060-061-PZZ750-775-060200-

GREATER SAN DIEGO AREA

CITY           SKY/WX    TMP DP  RH WIND       PRES   REMARKS
SAN DIEGO AP   MOCLDY    60  51  72 S8        29.95R
NATIONAL CITY    N/A     60  54  80 S3        29.94R
CHULA VISTA      N/A     60  54  81 W2        29.85R
IMPERIAL BEACH MOCLDY    60  52  74 S6        29.94R
BROWN FIELD    PTCLDY    57  51  80 SW8       29.93R
MIRAMAR MCAS   PTCLDY    59  52  77 S7        29.93R
MONTGOMERY FLD PTCLDY    58  50  75 S8        29.94R

$$

NORTH SAN DIEGO COUNTY

CITY           SKY/WX    TMP DP  RH WIND       PRES   REMARKS
CAMP PENDLETON PTCLDY    58  53  84 SW3       29.93R
OCEANSIDE AP   PTCLDY    60  53  77 SW3       29.92R
OCEANSIDE HBR    N/A     59  53  80 CALM      29.95R
VISTA            N/A     58  52  80 SW2       29.91R
CARLSBAD       MOCLDY    58  53  84 SW5       29.92R
DEL MAR          N/A     58  54  87 S2        29.95R
LA JOLLA SCRIP   N/A     58  54  85 SE8       29.93R
FALLBROOK        N/A     58  55  91 CALM      29.92R
ESCONDIDO        N/A     60  52  75 SW7       29.94R
SAN MARCOS       N/A     58  51  78 CALM      29.95R
POWAY            N/A     58  51  76 CALM      29.96R

$$

EAST SAN DIEGO COUNTY

CITY           SKY/WX    TMP DP  RH WIND       PRES   REMARKS
RAMONA         PTCLDY    54  48  80 W5        29.93R
SANTEE LAKES     N/A     59  52  78 SW2       29.93R
LA MESA          N/A     56  51  82 CALM      29.87R
JAMUL            N/A     56  50  81 CALM      29.94R
DESCANSO N       N/A     47  39  72 W3        29.88S
CAMPO            N/A     53  44  71 SW7       29.89S

$$

ORANGE COUNTY AND THE LOS ANGELES BASIN

CITY           SKY/WX    TMP DP  RH WIND       PRES   REMARKS
JOHN WAYNE AP  PTCLDY    59  52  77 S7        29.93R
LAGUNA BEACH     N/A     59  53  79 CALM      29.88R
LAKE FOREST FR   N/A     57  49  73 CALM      29.83R
HUNTINGTON BCH   N/A     59  54  83 CALM      29.94S
LOS ALAMITOS   FAIR      58  53  83 S5        29.92S
FULLERTON      MOCLDY    60  53  77 SW6       29.92R
LONG BEACH     CLEAR     59  52  77 S7        29.92S
L.A. AP        PTCLDY    59  54  83 W7        29.93R
L.A. DOWNTOWN  PTCLDY    60  54  80 VRB5      29.92R

$$

THE INLAND EMPIRE

CITY           SKY/WX    TMP DP  RH WIND       PRES   REMARKS
CORONA         PTCLDY    60  51  72 W6        29.91S
CHINO          PTCLDY    60  47  61 W8        29.92R
ONTARIO        PTCLDY    60  38  43 W10       29.91R
SAN BERNARDINO FAIR      63  29  27 CALM      29.91S
RIVERSIDE AP   PTCLDY    62  40  44 W8        29.91R
MORENO VALLEY    N/A     61  38  43 SW2       28.03S
MARCH ARB      PTCLDY    58  33  39 W7        29.91R
HORSETHIEF CYN   N/A     57  32  39 NW6       29.95R
PERRIS           N/A     61  42  50 S2        29.94R
HEMET EAST       N/A     58  36  44 CALM      29.96R
FRENCH VALLEY  NOT AVBL
TEMECULA         N/A     59  53  80 SW5       29.95R

$$

SAN BERNARDINO AND RIVERSIDE COUNTY MOUNTAINS

CITY           SKY/WX    TMP DP  RH WIND       PRES   REMARKS
BIG BEAR AP    PTCLDY    41  14  33 W3        30.00S
PINE COVE        N/A     44  23  43 NW1       29.87S

$$

SOUTHERN DESERT INCLUDING THE COACHELLA VALLEY

CITY           SKY/WX    TMP DP  RH WIND       PRES   REMARKS
PALM SPRINGS   PTCLDY    63  28  26 SE6       29.89R
PALM DESERT      N/A     63  30  29 CALM      31.79
THERMAL        PTCLDY    58  26  29 NE3       29.85S
BLYTHE         MOCLDY    61  20  20 SE6       29.87S
IMPERIAL AP    PTCLDY    63  36  36 N3        29.85S
EL CENTRO NAS  PTCLDY    62  38  40 CALM      29.87S
YUMA AZ        MOCLDY    67  35  30 CALM      29.86
MEXICALI       MOCLDY    66  48  52 CALM      29.86S

$$

UPPER DESERT

CITY           SKY/WX    TMP DP  RH WIND       PRES   REMARKS
VICTORVILLE AP PTCLDY    59  19  21 CALM      29.91S
HESPERIA         N/A     58  26  29 S1        30.02S
PALMDALE       PTCLDY    59  21  23 NW18      29.92R
LANCASTER      PTCLDY    54  28  36 W22       29.92R
EDWARDS AFB    MOCLDY    60  24  25 SW9       29.88R
DAGGETT        PTCLDY    58  21  24 S6        29.88F
29 PALMS N     PTCLDY    58  16  19 S12       29.95R
NEEDLES        MOCLDY    61  19  19 N3        29.88R

$$

REGIONAL REPORTS

CITY           SKY/WX    TMP DP  RH WIND       PRES   REMARKS
SANTA BARBARA  CLEAR     58  54  86 SE6       29.90S
LAS VEGAS NV   CLOUDY    57  18  21 CALM      29.87F
PHOENIX AZ     MOCLDY    64  16  15 W5        29.87S
TIJUANA        PTCLDY    59  48  67 S6        29.95R
ENSENADA NW      N/A     60  32  34 CALM      29.92S

$$

OFFSHORE ISLANDS

CITY           SKY/WX    TMP DP  RH WIND       PRES   REMARKS
CATALINA ARPT  FOG       53  52  96 SW6       29.94R VSB 1
SAN CLEMENTE I MOCLDY    58  52  80 W10       29.94R
SAN NICOLAS IS MOCLDY    53  32  44 NW21G31   29.94R

$$

MARINE AND OFFSHORE BUOY REPORTS

STATION/POSITION SKY/WX   TEMP    WIND        PRES    SWELL
                          AIR SEA DIR/SP/G            HT/PER/DIR
                          (F)     (DEG/KT/KT) (MB)    (FT/S/D)
TANNER BANKS               58 62  310/ 23/ 29 1014.3R   8/330/14
S CLEMENTE BASIN           60 62  250/  8/ 12 1013.1F   7/280/14
SAN NICOLAS IS.               59                N/A     7/300/13
SO. S. ROSA ISLA           56 58  310/ 23/ 29 1013.4F   7/300/14
W. S. BARBARA CH           56 58  320/ 27/ 31 1013.1F   7/300/15
M. S. BARBARA CH                   70/  6/  8 1013.1R
S. MONICA BASIN            59 61  220/  2/  4 1013.1R   3/270/ 7
S PEDRO CHANNEL               62                N/A     2/270/14
CMP PENDLETON NS              62                N/A     2/240/15
OCEANSIDE OFFSHR              63                N/A     2/240/14
TORREY PINES OTR              62                N/A     3/260/15
POINT LOMA SOUTH              62                N/A     3/270/14

$$





USA.gov is the U.S. government's official web portal to all federal, state and local government web resources and services.